This is the latest recevied weather packets stored in our database for station/object YACHTS. If no packets are shown the sender has not sent any weather packets the latest 1 day(s).
| Time | Temp. | Humidity | Pressure | Rain* | Wind** | Luminosity | Snow |
|---|---|---|---|---|---|---|---|
| 1778030215 | 11.67° C | 87% | 1016.2 hPa | 0 mm | 0.45 m/s, 322° | - | - |
| 1778029903 | 11.67° C | 87% | 1016.1 hPa | 0 mm | 1.79 m/s, 298° | - | - |
| 1778029589 | 11.67° C | 88% | 1016.2 hPa | 0 mm | 1.34 m/s, 299° | - | - |
| 1778029276 | 11.67° C | 87% | 1016.2 hPa | 0 mm | 1.34 m/s, 316° | - | - |
| 1778028963 | 11.67° C | 88% | 1016.2 hPa | 0 mm | 1.79 m/s, 316° | - | - |
| 1778028650 | 11.67° C | 88% | 1016.2 hPa | 0 mm | 0 m/s | - | - |
| 1778028338 | 11.67° C | 87% | 1016.1 hPa | 0 mm | 2.24 m/s, 1° | - | - |
| 1778028024 | 11.67° C | 87% | 1016.1 hPa | 0 mm | 2.24 m/s, 305° | - | - |
| 1778027398 | 11.67° C | 88% | 1016.1 hPa | 0 mm | 0.89 m/s, 294° | - | - |
| 1778027085 | 11.67° C | 88% | 1016.2 hPa | 0 mm | 0 m/s | - | - |
| 1778026772 | 11.67° C | 88% | 1016.2 hPa | 0 mm | 0 m/s | - | - |
| 1778026459 | 11.67° C | 88% | 1016.2 hPa | 0 mm | 0.45 m/s, 323° | - | - |
| 1778026146 | 11.67° C | 88% | 1016.2 hPa | 0 mm | 1.34 m/s, 295° | - | - |
| 1778025833 | 11.67° C | 88% | 1016.2 hPa | 0 mm | 2.68 m/s, 312° | - | - |
| 1778025520 | 11.67° C | 88% | 1016.2 hPa | 0 mm | 0 m/s | - | - |
| 1778025207 | 11.67° C | 88% | 1016.3 hPa | 0 mm | 1.34 m/s, 0° | - | - |
| 1778024894 | 11.67° C | 88% | 1016.2 hPa | 0 mm | 2.24 m/s, 0° | - | - |
| 1778024581 | 11.67° C | 88% | 1016.2 hPa | 0 mm | 2.68 m/s, 310° | - | - |
| 1778023955 | 11.67° C | 88% | 1016.2 hPa | 0 mm | 2.68 m/s, 315° | - | - |
| 1778023642 | 11.11° C | 88% | 1016.2 hPa | 0 mm | 3.13 m/s, 296° | - | - |
| 1778023329 | 11.67° C | 89% | 1016.3 hPa | 0 mm | 2.24 m/s, 294° | - | - |
| 1778023016 | 11.67° C | 89% | 1016.3 hPa | 0 mm | 2.68 m/s, 320° | - | - |
| 1778022704 | 11.67° C | 89% | 1016.3 hPa | 0 mm | 2.68 m/s, 316° | - | - |
| 1778022390 | 11.67° C | 89% | 1016.3 hPa | 0 mm | 2.24 m/s, 315° | - | - |
| 1778022079 | 11.67° C | 89% | 1016.3 hPa | 0 mm | 1.79 m/s, 320° | - | - |
* Rain latest hour (hover to see other rain measurements)
** Current wind speed in m/s (hover to see current wind gust speed)